Погода в Мыюте

Россия / Республика Алтай     51°25′04″N   85°37′11″E
темп.,
°C
ветер,
м/с
пор.,
м/с
влажн.,
%
обл.,
%
осадки,
мм/ч
давл.,
гПа
погр.,
м
20 апреля, вт
вт2001:00−6ссз1294100 1.6 1022202
04:00−8с2394100 0.7 1023306
07:00−10с2292100 1.0 1024279
10:00−8ссв2279100 0.3 1025875
13:00−6ссв3274100 0.6 10241069
16:00−6ссв3377100 0.4 10241005
19:00−8ссв3482100 0.6 1026621
22:00−13зсз119894 0.1 102917
21 апреля, ср
ср2101:00−15ююз119720 0.1 102910
04:00−15ююз21967 0.0 102816
07:00−14ююз12875 0.0 102744
10:00−6св11560 0.0 1024537
13:00−2ссв22485 0.0 1021981
16:00−1ссв2252100 0.0 10201219
19:00−3с2269100 0.0 1022697
22:00−6с1294100 0.0 1026152
22 апреля, чт
чт2201:00−7ссз0197100 0.1 102753
04:00−7ссз119697 0.0 102864
07:00−7ссз118996 0.0 1030114
10:00−4с2262100 0.0 1031972
13:00−3с3371100 0.4 10321268
16:00−3с3464100 0.3 10341280
19:00−5с2484100 0.4 1037592
22:00−6сз1295100 0.6 1039251
23 апреля, пт
пт2301:00−5ссз1395100 1.6 1038269
04:00−7зсз1199100 0.1 103828
07:00−7ссз1395100 0.2 1038176
10:00−4с2584100 0.4 1038814
13:00−3с3482100 1.4 10371004
16:00−2с3374100 0.6 1036983
19:00−2с2386100 1.1 1037562
22:00−4зюз1198100 0.4 103839
24 апреля, сб
сб2401:00−4зюз1196100 0.9 1036106
04:00−4зюз1196100 1.1 1035149
07:00−4з1195100 3.0 1035184
10:00−2зсз1189100 1.1 1034520
13:000с2279100 2.1 1032895
16:000с2480100 1.6 1032874
19:00−1ссз137989 2.3 1033632
22:00−6юз1197100 0.1 103512